This demonstration page uses our WeatherBlox Daily Observations layout. Learn more.

Left ArrowRight Arrow

39.92423, -83.80882

Hourly Observations for December 16, 2015

Temp ( °F °C ) Dew Point ( °F °C ) Humidity (%) Winds ( mph kmh ) Pressure ( in mb ) Visibility ( mi km ) Precip ( " mm )
12:40 am 00:40 Partly Cloudy 37 3 36 2 93 93 E 7 11 30 1016 10 16.0934 0 0
12:56 am 00:56 Clear 36 2.2 35 1.6 96 96 E 7 11 29.99 1016 10 16.0934 0 0
1:56 am 01:56 Clear 35 1.6 34 1.1 97 97 E 7 11 29.99 1016 10 16.0934 0 0
2:56 am 02:56 Clear 35 1.6 35 1.6 100 100 E 7 11 29.98 1015 10 16.0934 0 0
3:56 am 03:56 Clear 35 1.6 35 1.6 100 100 ESE 7 11 29.98 1015 10 16.0934 0 0
4:56 am 04:56 Clear 35 1.6 35 1.6 100 100 E 8 13 29.97 1015 10 16.0934 0 0
5:56 am 05:56 Clear 37 2.7 37 2.7 100 100 ESE 8 13 29.96 1015 10 16.0934 0 0
6:56 am 06:56 Clear 37 2.7 37 2.7 100 100 ESE 10 17 29.96 1015 10 16.0934 0 0
7:56 am 07:56 Sunny 37 2.7 36 2.2 97 97 ESE 9 15 29.96 1015 10 16.0934 0 0
8:56 am 08:56 Sunny 40 4.4 38 3.3 93 93 ESE 12 19 29.97 1015 10 16.0934 0 0
9:56 am 09:56 Sunny 44 6.6 41 5 90 90 SE 13 20 29.96 1015 10 16.0934 0 0
10:56 am 10:56 Sunny 48 8.8 43 6.1 83 83 SE 10 17 29.92 1013 10 16.0934 0 0
11:56 am 11:56 Sunny 51 10.5 45 7.2 80 80 SSE 12 19 29.88 1012 10 16.0934 0 0
12:56 pm 12:56 Sunny 54 12.2 47 8.3 77 77 SSE 9 15 29.85 1011 10 16.0934 0 0
1:56 pm 13:56 Sunny 59 15 48 8.8 67 67 S 7 11 29.83 1010 10 16.0934 0 0
2:56 pm 14:56 Sunny 59 15 47 8.3 64 64 SSW 9 15 29.82 1010 10 16.0934 0 0
3:56 pm 15:56 Sunny 58 14.4 46 7.7 64 64 SSE 15 24 29.74 1007 10 16.0934 0 0
4:56 pm 16:56 Mostly Cloudy 57 13.8 48 8.8 72 72 S 7 11 29.77 1008 10 16.0934 0 0
5:56 pm 17:56 Mostly Cloudy 57 13.8 48 8.8 72 72 SSE 8 13 29.75 1008 10 16.0934 0 0
6:56 pm 18:56 Mostly Cloudy 56 13.3 48 8.8 74 74 SSE 12 19 29.73 1007 10 16.0934 0 0
7:56 pm 19:56 Cloudy 57 13.8 47 8.3 70 70 S 9 15 29.75 1008 10 16.0934 0 0
8:56 pm 20:56 Cloudy 58 14.4 47 8.3 67 67 S 8 13 29.75 1007 10 16.0934 0 0
9:56 pm 21:56 Cloudy 58 14.4 47 8.3 67 67 SSW 8 13 29.74 1007 10 16.0934 0 0
10:56 pm 22:56 Cloudy 58 14.4 48 8.8 69 69 SW 22 35 29.73 1007 10 16.0934 0 0
11:56 pm 23:56 Cloudy 56 13.3 50 10 81 81 SSW 12 19 29.74 1007 10 16.0934 0 0

Powered by AerisWeather